Date String (YYYY-MM-DD hh:mm:ss) UTC,Instrument flags,absolute air pressure of the measurement (hPa),sample flow rate (lpm),inlet stack bypass flow (lpm),air temperature of the measurement (°C),ambient temperature measured by the external sensor (°C),aerosol sample conditioner tube jacket temperature (°C),OPC LED temperature (°C),internal box temperature (°C),relative humidity of the measurement (%),span deviation,mass concentration of particles derived from Lorenz-Mie calculation of OPC scattering (μg/m³),mass concentration of particles derived from Lorenz-Mie calculation of OPC scattering (μg/m³),mass concentration of particles derived from Lorenz-Mie calculation of OPC scattering (μg/m³)
DateTimeUTC,F1_M11,P_M11,Q1_M11,Q2_M11,T1_M11,T2_M11,T3_M11,T4_M11,T5_M11,U1_M11,ZSPAN_M11,X0_M11,X2_M11,X1_M11
2024-06-08 13:00:00,SystemResetWarning,0829.5,5.00,000.00,030.5,027.3,000.0,039.3,031.2,022.2,0000.0,0013.20,0004.49,0003.32
2024-06-08 13:01:00,SystemResetWarning,0829.5,5.01,000.00,030.2,026.7,000.0,039.2,030.8,022.8,0000.0,0013.03,0004.48,0003.29
2024-06-08 13:02:00,SystemResetWarning,0829.5,5.01,000.00,030.0,027.0,000.0,039.1,030.9,023.0,0000.0,0012.60,0004.51,0003.28
2024-06-08 13:03:00,SystemResetWarning,0829.5,5.00,000.00,030.0,027.4,000.0,039.0,031.1,023.1,0000.0,0012.83,0004.44,0003.25
2024-06-08 13:04:00,SystemResetWarning,0829.5,4.99,000.00,030.0,027.8,000.0,038.9,031.3,023.0,0000.0,0013.52,0004.42,0003.23
2024-06-08 13:05:00,SystemResetWarning,0829.5,5.00,000.00,030.0,028.2,000.0,038.8,031.4,023.0,0000.0,0013.41,0004.37,0003.23
2024-06-08 13:06:00,SystemResetWarning,0829.5,5.01,000.00,030.0,028.5,000.0,038.7,031.5,023.5,0000.0,0012.56,0004.32,0003.21
2024-06-08 13:07:00,SystemResetWarning,0829.5,5.00,000.00,030.0,028.7,000.0,038.7,031.6,023.3,0000.0,0012.90,0004.35,0003.21
2024-06-08 13:08:00,SystemResetWarning,0829.5,4.99,000.00,030.1,028.9,000.0,038.7,031.7,023.0,0000.0,0012.68,0004.39,0003.20
2024-06-08 13:09:00,SystemResetWarning,0829.5,4.99,000.00,030.1,029.1,000.0,038.6,031.7,023.0,0000.0,0012.88,0004.41,0003.20
2024-06-08 13:10:00,SystemResetWarning,0829.6,4.99,000.00,030.1,029.2,000.0,038.6,031.8,023.0,0000.0,0013.11,0004.46,0003.19
2024-06-08 13:11:00,SystemResetWarning,0829.6,5.00,000.00,030.2,029.3,000.0,038.6,031.8,023.0,0000.0,0012.88,0004.50,0003.18
2024-06-08 13:12:00,SystemResetWarning,0829.6,5.01,000.00,030.2,029.4,000.0,038.6,031.9,022.9,0000.0,0012.05,0004.48,0003.18
2024-06-08 13:13:00,SystemResetWarning,0829.7,5.01,000.00,030.2,029.5,000.0,038.6,031.9,022.9,0000.0,0011.78,0004.49,0003.18
2024-06-08 13:14:00,SystemResetWarning,0829.7,5.00,000.00,030.3,029.6,000.0,038.6,032.0,022.8,0000.0,0012.38,0004.49,0003.19
2024-06-08 13:15:00,SystemResetWarning,0829.7,4.99,000.00,030.3,029.6,000.0,038.6,032.0,022.8,0000.0,0012.21,0004.49,0003.18
2024-06-08 13:16:00,SystemResetWarning,0829.7,4.99,000.00,030.3,029.7,000.0,038.7,032.0,022.8,0000.0,0012.21,0004.49,0003.17
2024-06-08 13:17:00,SystemResetWarning,0829.7,5.00,000.00,030.4,029.7,000.0,038.7,032.1,022.7,0000.0,0012.01,0004.43,0003.16
2024-06-08 13:18:00,SystemResetWarning,0829.6,5.00,000.00,030.4,029.8,000.0,038.7,032.1,022.7,0000.0,0012.25,0004.35,0003.14
2024-06-08 13:19:00,SystemResetWarning,0829.6,5.00,000.00,030.4,029.8,000.0,038.7,032.1,022.7,0000.0,0012.21,0004.26,0003.11
2024-06-08 13:20:00,SystemResetWarning,0829.6,5.00,000.00,030.4,029.8,000.0,038.7,032.1,022.7,0000.0,0012.30,0004.18,0003.08
2024-06-08 13:21:00,SystemResetWarning,0829.6,5.00,000.00,030.5,029.9,000.0,038.7,032.2,022.7,0000.0,0012.78,0004.16,0003.08
2024-06-08 13:22:00,SystemResetWarning,0829.6,5.01,000.00,030.5,029.9,000.0,038.8,032.2,022.7,0000.0,0013.00,0004.07,0003.05
2024-06-08 13:23:00,SystemResetWarning,0829.6,5.00,000.00,030.5,029.9,000.0,038.8,032.3,022.7,0000.0,0013.31,0004.05,0003.01
2024-06-08 13:24:00,SystemResetWarning,0829.6,5.01,000.00,030.6,030.0,000.0,038.8,032.3,022.7,0000.0,0014.44,0004.03,0003.00
2024-06-08 13:25:00,SystemResetWarning,0829.6,5.00,000.00,030.6,030.0,000.0,038.8,032.3,022.8,0000.0,0013.79,0004.01,0002.97
2024-06-08 13:26:00,SystemResetWarning,0829.6,5.00,000.00,030.6,030.0,000.0,038.9,032.3,023.5,0000.0,0013.63,0004.04,0002.96
2024-06-08 13:27:00,SystemResetWarning,0829.6,4.99,000.00,030.7,030.1,000.0,038.9,032.3,023.9,0000.0,0013.93,0004.03,0002.96
2024-06-08 13:28:00,SystemResetWarning,0829.6,5.00,000.00,030.7,030.1,000.0,038.9,032.4,023.5,0000.0,0015.31,0004.05,0002.96
2024-06-08 13:29:00,SystemResetWarning,0829.6,5.00,000.00,030.7,030.1,000.0,038.9,032.4,023.5,0000.0,0014.91,0004.04,0002.96
2024-06-08 13:30:00,SystemResetWarning,0829.6,5.00,000.00,030.7,030.2,000.0,038.9,032.4,023.2,0000.0,0014.38,0004.04,0002.95
2024-06-08 13:31:00,SystemResetWarning,0829.7,5.00,000.00,030.8,030.2,000.0,039.0,032.5,023.9,0000.0,0014.89,0004.09,0002.94
2024-06-08 13:32:00,SystemResetWarning,0829.7,5.01,000.00,030.8,030.2,000.0,039.0,032.5,023.8,0000.0,0015.96,0004.09,0002.93
2024-06-08 13:33:00,SystemResetWarning,0829.6,5.01,000.00,030.8,030.2,000.0,039.0,032.5,023.3,0000.0,0015.90,0004.11,0002.95
2024-06-08 13:34:00,SystemResetWarning,0829.7,5.00,000.00,030.8,030.2,000.0,039.0,032.5,023.8,0000.0,0015.52,0004.09,0002.96
2024-06-08 13:35:00,SystemResetWarning,0829.6,5.00,000.00,030.8,030.3,000.0,039.1,032.6,024.2,0000.0,0015.16,0004.08,0002.95
2024-06-08 13:36:00,SystemResetWarning,0829.6,4.99,000.00,030.8,029.5,000.0,039.1,032.2,023.9,0000.0,0015.25,0004.05,0002.94
2024-06-08 13:37:00,SystemResetWarning,0829.5,5.00,000.00,030.4,027.5,000.0,039.2,031.2,024.2,0000.0,0015.29,0004.03,0002.96
2024-06-08 13:38:00,SystemResetWarning,0829.4,5.02,000.00,030.2,027.3,000.0,039.1,031.0,024.4,0000.0,0014.66,0004.03,0002.96
2024-06-08 13:39:00,SystemResetWarning,0829.5,4.99,000.00,030.1,027.7,000.0,039.0,031.2,024.7,0000.0,0014.21,0004.06,0002.95
2024-06-08 13:40:00,SystemResetWarning,0829.5,4.99,000.00,030.1,028.0,000.0,038.9,031.4,024.7,0000.0,0014.74,0004.10,0002.96
2024-06-08 13:41:00,SystemResetWarning,0829.5,5.00,000.00,030.1,028.4,000.0,038.8,031.5,025.3,0000.0,0014.80,0004.16,0002.99
2024-06-08 13:42:00,SystemResetWarning,0829.5,5.01,000.00,030.1,028.6,000.0,038.8,031.6,024.4,0000.0,0014.61,0004.14,0003.03
2024-06-08 13:43:00,SystemResetWarning,0829.5,5.01,000.00,030.1,028.9,000.0,038.7,031.7,024.2,0000.0,0012.56,0004.17,0003.05
2024-06-08 13:44:00,SystemResetWarning,0829.4,5.00,000.00,030.2,029.1,000.0,038.7,031.8,024.3,0000.0,0012.97,0004.17,0003.05
2024-06-08 13:45:00,SystemResetWarning,0829.4,4.99,000.00,030.2,029.2,000.0,038.7,031.8,024.2,0000.0,0013.25,0004.17,0003.03
2024-06-08 13:46:00,SystemResetWarning,0829.3,4.99,000.00,030.2,029.3,000.0,038.7,031.9,024.0,0000.0,0013.25,0004.16,0003.02
2024-06-08 13:47:00,SystemResetWarning,0829.3,4.99,000.00,030.3,029.4,000.0,038.7,031.9,024.1,0000.0,0013.21,0004.17,0003.02
2024-06-08 13:48:00,SystemResetWarning,0829.3,5.00,000.00,030.3,029.5,000.0,038.7,032.0,024.3,0000.0,0013.31,0004.08,0002.97
2024-06-08 13:49:00,SystemResetWarning,0829.3,5.00,000.00,030.3,029.6,000.0,038.7,032.0,024.7,0000.0,0014.24,0004.04,0002.92
2024-06-08 13:50:00,SystemResetWarning,0829.3,5.01,000.00,030.4,029.7,000.0,038.7,032.1,024.6,0000.0,0014.12,0004.01,0002.93
2024-06-08 13:51:00,SystemResetWarning,0829.4,5.01,000.00,030.4,029.8,000.0,038.7,032.1,024.4,0000.0,0013.91,0003.98,0002.91
2024-06-08 13:52:00,SystemResetWarning,0829.3,5.00,000.00,030.4,029.8,000.0,038.7,032.2,024.5,0000.0,0013.91,0003.94,0002.88
2024-06-08 13:53:00,SystemResetWarning,0829.3,5.00,000.00,030.5,029.9,000.0,038.8,032.2,024.6,0000.0,0013.41,0003.90,0002.85
2024-06-08 13:54:00,SystemResetWarning,0829.3,5.00,000.00,030.5,029.9,000.0,038.8,032.2,024.9,0000.0,0013.44,0003.89,0002.82
2024-06-08 13:55:00,SystemResetWarning,0829.3,5.00,000.00,030.6,030.0,000.0,038.8,032.3,025.0,0000.0,0013.50,0003.90,0002.81
2024-06-08 13:56:00,SystemResetWarning,0829.3,5.00,000.00,030.6,030.0,000.0,038.8,032.3,024.9,0000.0,0013.67,0003.92,0002.82
2024-06-08 13:57:00,SystemResetWarning,0829.3,5.00,000.00,030.6,030.1,000.0,038.8,032.3,024.6,0000.0,0013.42,0003.93,0002.81
2024-06-08 13:58:00,SystemResetWarning,0829.3,4.99,000.00,030.7,029.9,000.0,038.9,032.2,025.3,0000.0,0013.84,0003.92,0002.80
2024-06-08 13:59:00,SystemResetWarning,0829.3,4.99,000.00,030.4,028.1,000.0,038.9,031.3,025.1,0000.0,0013.26,0003.96,0002.82
